Location: Düngen
(52.0952°N, 10.0219°E)
Time: 18:45:46
(UTC+00:00)

Cosmos 1271 Rocket - Pass Details

Date: 11 March 2026
Orbit: 425 x 450 km, 81.2° (Epoch: 20 April)

Event Time Altitude Azimuth Distance (km) Brightness Sun altitude
Rises 18:02:03 0° 350° (N) 2,448 6.3 -7.7°
Reaches altitude 10° 18:04:09 10° 355° (N) 1,577 5.3 -8.0°
Maximum altitude 18:07:32 54° 74° (ENE) 551 2.5 -8.5°
Drops below altitude 10° 18:10:55 10° 153° (SSE) 1,578 4.8 -9.1°
Sets 18:13:01 0° 158° (SSE) 2,449 5.9 -9.4°
